This is the latest recevied weather packets stored in our database for station/object K3SV. If no packets are shown the sender has not sent any weather packets the latest 10 day(s).
| Time | Temp. | Humidity | Pressure | Rain* | Wind** | Luminosity | Snow |
|---|---|---|---|---|---|---|---|
| 1777766027 | 21.67° C | 98% | 1011.2 hPa | 0 mm | - | 1 W/m² | - |
| 1777765724 | 21.67° C | 98% | 1011 hPa | 0 mm | - | 2 W/m² | - |
| 1777765416 | 21.67° C | 98% | 1010.9 hPa | 0 mm | - | 9 W/m² | - |
| 1777765113 | 21.67° C | 98% | 1010.8 hPa | 0 mm | - | 15 W/m² | - |
| 1777764809 | 21.67° C | 98% | 1010.7 hPa | 0 mm | - | 19 W/m² | - |
| 1777764506 | 21.67° C | 98% | 1010.8 hPa | 0 mm | - | 24 W/m² | - |
| 1777764202 | 21.67° C | 98% | 1010.6 hPa | 0 mm | - | 35 W/m² | - |
| 1777763898 | 21.67° C | 98% | 1010.6 hPa | 0 mm | - | 39 W/m² | - |
| 1777763597 | 21.11° C | 98% | 1010.6 hPa | 0 mm | - | 36 W/m² | - |
| 1777763294 | 21.11° C | 98% | 1010.7 hPa | 0 mm | - | 36 W/m² | - |
| 1777762992 | 21.11° C | 98% | 1010.5 hPa | 0 mm | - | 38 W/m² | - |
| 1777762689 | 21.11° C | 98% | 1010.7 hPa | 0 mm | - | 38 W/m² | - |
| 1777762386 | 21.11° C | 98% | 1010.8 hPa | 0 mm | - | 36 W/m² | - |
| 1777762082 | 21.67° C | 98% | 1011 hPa | 0 mm | - | 41 W/m² | - |
| 1777761778 | 21.67° C | 98% | 1010.8 hPa | 0 mm | - | 46 W/m² | - |
| 1777761476 | 21.67° C | 98% | 1010.8 hPa | 0 mm | - | 47 W/m² | - |
| 1777761174 | 21.11° C | 98% | 1010.7 hPa | 0 mm | - | 44 W/m² | - |
| 1777760871 | 21.11° C | 98% | 1010.7 hPa | 0 mm | - | 38 W/m² | - |
| 1777760569 | 21.11° C | 98% | 1011 hPa | 0 mm | - | 33 W/m² | - |
| 1777760264 | 21.11° C | 99% | 1010.3 hPa | 0 mm | - | 35 W/m² | - |
| 1777759961 | 21.11° C | 99% | 1011.1 hPa | 0 mm | - | 34 W/m² | - |
| 1777759658 | 21.11° C | 99% | 1011 hPa | 0 mm | - | 34 W/m² | - |
| 1777759353 | 21.11° C | 99% | 1010.7 hPa | 0 mm | - | 34 W/m² | - |
| 1777759050 | 21.11° C | 99% | 1010.4 hPa | 0 mm | - | 40 W/m² | - |
| 1777758748 | 21.11° C | 99% | 1010.6 hPa | 0 mm | - | 50 W/m² | - |
* Rain latest hour (hover to see other rain measurements)
** Current wind speed in m/s (hover to see current wind gust speed)